STARLINK-1771, 46384

Orbit data source: Space-Track

STARLINK-1771, 46384 is a payload satellite owned by SpaceX/Seattle (US) in LEO that was launched on Thu, 03 Sep 2020 UTC via an FALCON 9 launch vehicle from the Air Force Eastern Test Range (AFETR). Payload-class satellites include a variety of spacecraft equipped with specific instruments for various scientific and technological missions. These include communications satellites like Starlink; space stations such as the ISS; scientific satellites like the Hubble; Earth observation satellites from companies like Planet Labs, Umbra, and HawkEye 360; GPS; miniature CubeSats for education and research; and military/defense satellites.

Loading next visibility...
Identifier
46384, 2020-062BM
Orbit
LEO
Country
Flag of USUS
Related business
Manufacturer
SpaceX/Seattle
Mission
Partially operational Commercial Communications
Bus & Motor
STARLINK, Unknown motor
Mass
260 kg wet, ~248 kg dry
Launch date (UTC)
2020-09-03 (6 years ago)
Launch vehicle
FALCON 9
Launch site
Air Force Eastern Test Range (AFETR)
Object type
Payload
Rocket body
Debris
Shape & HBR
Box + 1 Pan, 10.1 m
Radar Cross Section
13.562 m², Large (>1 m²)

Expand to show TLE details & history
Last TLE update: 2 days ago

TLE from 2 days ago
0 STARLINK-1771
1 46384U 20062BM  26071.43418640  .00074755  00000-0  14537-2 0  9991
2 46384  53.0422 332.8521 0002363 261.2007  98.8732 15.46951825305167
Epoch: 2026-03-12T10:25Z
TLE epoch observation values (Epoch: 2026-03-12T10:25:13.704Z)
Latitude
-0.00004°
Longitude
6.46084°
Altitude
426.791 km
Speed
7.656 km/s
True Right ascension
22h 11m 24s
True Declination
0° 00' 00"
Sunlit
Object was in daylight at epoch
Visualization orbit readout
Latitude
Unknown
Longitude
Unknown
Altitude
Unknown
Speed
Unknown
Apparent Right ascension
Unknown
Apparent Declination
Unknown
Sunlit
N/A
Visualization observer readout
Local Sidereal Time
07:52:31
Azimuth
Unknown
Elevation
Unknown
Doppler factor
Unknown
Orbital elements
Apogee altitude
427.534 km
Perigee altitude
424.319 km
Semi-major axis
6,804.063 km
Eccentricity
0.00024
Inclination
53.0422°
RAAN
332.8521°
Arg. of periapsis
261.2007°
True anomaly
98.89995°
Mean anomaly
98.8732°
Eccentric anomaly
98.88658°
Mean motion
3.86715 °/min
Orbital period
93.09 mins
BSTAR
0.0014537
Loading maneuver chart data...
Computing Atmospheric mass density...
Loading historical data...
Loading historical data...
Loading historical data...
Loading historical data...
Loading historical data...
Loading historical data...
Loading historical data...

Documentation

Showing up to 5 results
|